Lid_Strength_Index
1 1 1 1 1 1 1 1 2 2 1 1 2 1 1 1 2 0 3 5 4 -0 2 4 4 3 4 5 4 4 8 9 8 8 7 5 6 5 4 4 4 5 4 3 2
0 0 0 0 1 1 1 1 2 2 1 2 2 1 1 2 1 2 5 0 1 0 5 5 5 4 5 5 5 6 8 8 6 6 7 6 6 5 5 5 5 5 3 3 2
-0 0 0 1 1 0 1 1 2 2 2 2 2 2 2 2 3 5 2 0 1 2 4 3 3 4 5 4 5 6 8 6 6 5 5 6 6 4 6 6 5 5 5 3 3
1 1 1 1 1 1 1 2 2 2 1 2 2 2 2 2 8 4 1 1 1 4 4 4 4 5 6 6 4 7 6 6 6 5 6 6 5 6 5 5 4 3 3 3 4
3 3 3 2 2 2 2 2 2 2 2 2 2 2 2 5 4 1 -0 1 3 3 4 4 5 5 7 6 5 6 6 6 5 6 6 6 6 6 6 4 3 3 3 4 3
4 4 4 4 4 4 3 3 3 3 2 2 2 3 4 9 2 -1 -0 1 1 2 3 4 5 5 7 7 6 6 6 6 6 6 6 7 7 6 6 5 5 4 4 3 3
5 4 4 4 4 4 4 4 4 3 3 3 2 3 6 7 3 3 3 2 1 2 3 3 3 6 6 7 5 6 9 7 7 6 7 6 8 8 6 5 6 4 4 3 3
5 5 4 4 4 4 4 4 4 4 3 3 2 3 8 4 3 4 4 3 2 2 2 2 3 6 7 5 6 8 8 10 7 6 6 7 11 7 5 6 6 5 5 5 4
5 5 4 4 4 4 4 4 4 3 3 3 4 4 7 2 5 3 2 4 2 3 2 2 5 7 6 8 9 9 11 10 8 6 6 7 9 7 5 6 6 6 5 5 4
5 5 5 5 4 4 4 4 4 3 3 2 3 7 6 7 5 3 1 2 3 3 4 4 7 8 8 9 13 11 10 9 9 7 7 8 9 7 6 6 6 6 6 5 4
5 5 5 5 5 4 5 5 6 5 5 7 6 7 6 4 3 4 3 4 4 6 8 5 9 11 9 8 8 8 9 10 8 7 8 8 9 8 6 6 6 6 5 5 4
4 4 4 4 4 4 4 8 5 5 9 6 5 5 5 5 7 6 4 6 7 9 7 8 10 7 7 7 8 8 10 10 9 8 8 9 9 8 7 6 5 6 5 4 4
4 4 4 4 4 5 6 5 2 3 10 10 8 9 8 6 8 8 6 7 8 9 9 10 9 6 7 9 10 9 10 10 10 8 8 9 10 9 7 6 5 5 5 4 5
3 3 3 4 5 4 6 3 2 1 11 12 9 8 7 7 9 6 6 7 9 10 9 10 8 8 8 9 8 11 7 8 9 10 13 8 14 9 8 7 7 6 6 5 4
3 4 4 4 6 5 3 2 1 3 19 10 9 5 5 8 8 7 4 7 10 10 9 11 9 9 9 9 7 9 7 8 8 10 10 11 12 11 8 8 7 6 6 5 4
3 3 4 5 4 4 3 2 3 12 19 13 9 9 9 7 7 6 5 5 6 9 10 10 7 8 9 8 7 7 8 8 8 10 15 12 11 13 10 8 7 6 6 6 5
2 3 4 4 6 2 1 3 12 16 11 13 11 9 8 8 8 7 8 9 10 13 13 11 11 8 7 9 8 8 10 15 15 16 16 11 11 11 8 7 6 6 6 5 5
1 2 2 2 1 0 3 9 16 14 13 9 9 8 10 8 8 8 8 10 8 8 10 12 13 10 8 9 10 10 10 15 18 17 14 10 13 11 7 7 6 6 5 5 5
-0 1 1 0 -1 -0 5 14 13 12 10 10 9 10 9 9 9 9 9 10 8 9 14 13 12 7 7 6 8 10 12 9 13 12 15 13 11 9 7 8 7 7 5 5 5
1 2 2 -2 -2 2 8 11 10 8 7 8 11 9 12 10 10 9 10 8 9 7 7 11 15 8 7 7 7 9 8 14 15 21 20 15 13 12 10 10 8 8 6 6 5
2 6 1 -2 -0 6 12 10 8 6 6 8 9 9 10 10 9 10 10 8 7 7 7 8 12 11 8 11 11 10 11 12 13 15 20 19 14 9 9 8 8 7 6 6 6
3 9 1 -0 9 8 11 8 6 7 5 6 7 8 9 8 9 10 10 8 6 6 9 8 10 15 11 8 7 8 11 11 16 16 14 15 14 7 7 7 6 7 6 5 5
6 8 1 2 12 11 7 7 6 7 7 7 8 7 7 8 10 9 8 6 6 7 9 8 11 14 13 10 9 10 10 10 12 13 17 18 15 7 7 6 7 7 5 5 5
7 10 7 5 6 8 9 9 9 6 6 6 7 6 8 9 8 9 9 8 6 7 7 7 10 12 15 12 10 12 11 10 11 16 16 15 12 9 8 7 7 6 6 5 5
6 8 6 11 10 8 7 8 9 9 6 6 8 8 9 10 9 10 8 7 7 6 7 8 12 11 11 10 11 11 12 11 11 12 16 13 12 10 8 7 7 6 5 5 5
7 8 6 7 7 8 9 9 9 8 8 8 9 8 7 9 9 10 9 8 9 7 7 7 11 11 12 10 10 12 11 11 11 11 11 12 12 8 8 7 7 7 5 6 5
5 4 6 8 8 9 10 9 9 7 6 6 7 9 10 8 7 6 6 6 7 8 9 9 11 12 14 10 11 14 11 10 10 9 10 13 10 8 8 7 6 5 5 6 5